Middleton, WI

2:51 PM CDT on June 22, 2017 (GMT -0500)
Middleton

Weather History for KC29 - April, 2013

Change the Weather History Date:

Tuesday, April 30, 2013

  Actual Average (KMSN) Record (KMSN)
Temperature  
Mean Temperature 74 °F -  
Max Temperature 87 °F 63 °F 90 °F (1952)
Min Temperature 61 °F 40 °F 27 °F (1956)
Cooling Degree Days 9    
Growing Degree Days 24 (Base 50)    
Moisture  
Dew Point 48 °F    
Average Humidity 48    
Maximum Humidity 89    
Minimum Humidity 16    
Precipitation  
Precipitation 0.06 in - - ()
Sea Level Pressure  
Sea Level Pressure 29.73 in    
Wind  
Wind Speed 15 mph (SSW)    
Max Wind Speed 25 mph    
Max Gust Speed 33 mph    
Visibility 10 miles    
Events      
Averages and records for this station are not official NWS values.
T = Trace of Precipitation, MM = Missing Value Source: NWS Daily Summary

Daily Weather History Graph

Daily Weather History Graph

Search for Another Location

Airport or City:

Trip Planner

Search our weather history database for the weather conditions in past years. The results will help you decide how hot, cold, wet, or windy it might be!

Date:

Astronomy

Apr. 30, 2013 Rise Set
Actual Time 5:52 AM CDT 7:58 PM CDT
Civil Twilight 5:21 AM CDT 8:29 PM CDT
Nautical Twilight 4:43 AM CDT 9:07 PM CDT
Astronomical Twilight 4:01 AM CDT 9:50 PM CDT
Moon 12:23 AM CDT (4/30) 10:20 AM CDT (4/30)
Length of Visible Light 15h 07m
Length of Day
14h 05m
Waning Gibbous, 70% of the Moon is Illuminated
Apr 30
Waning Gibbous
May 2
Last Quarter
May 9
New
May 17
First Quarter
May 24
Full

Hourly Weather History & Observations

Time (CDT) Temp. Dew Point Humidity Pressure Visibility Wind Dir Wind Speed Gust Speed Precip Events Conditions
12:15 AM 65.5 °F 55.4 °F 70% 29.70 in 10.0 mi South 13.8 mph 20.7 mph N/A   Clear
12:35 AM 65.3 °F 55.4 °F 70% 29.70 in 10.0 mi South 15.0 mph - N/A   Clear
12:55 AM 64.9 °F 55.0 °F 70% 29.70 in 10.0 mi South 12.7 mph - N/A   Clear
1:15 AM 64.9 °F 55.2 °F 71% 29.69 in 10.0 mi South 15.0 mph 20.7 mph N/A   Scattered Clouds
1:35 AM 64.8 °F 55.0 °F 71% 29.68 in 10.0 mi South 16.1 mph 21.9 mph N/A   Scattered Clouds
1:55 AM 64.6 °F 54.7 °F 70% 29.67 in 10.0 mi South 17.3 mph - N/A   Clear
2:15 AM 64.4 °F 54.7 °F 71% 29.67 in 10.0 mi South 20.7 mph 25.3 mph N/A   Clear
2:35 AM 64.2 °F 54.5 °F 71% 29.67 in 10.0 mi South 13.8 mph 24.2 mph N/A   Clear
2:55 AM 64.4 °F 54.9 °F 71% 29.67 in 10.0 mi South 18.4 mph 24.2 mph N/A   Clear
3:15 AM 64.0 °F 55.0 °F 73% 29.67 in 10.0 mi South 21.9 mph 25.3 mph N/A   Clear
3:35 AM 64.2 °F 55.4 °F 73% 29.68 in 10.0 mi South 18.4 mph 26.5 mph N/A   Mostly Cloudy
3:55 AM 64.4 °F 55.4 °F 73% 29.71 in 10.0 mi SSW 15.0 mph 25.3 mph N/A   Mostly Cloudy
4:15 AM 64.0 °F 55.4 °F 73% 29.71 in 10.0 mi SW 9.2 mph - N/A   Scattered Clouds
4:35 AM 63.7 °F 55.4 °F 74% 29.72 in 10.0 mi SW 5.8 mph - N/A   Scattered Clouds
4:55 AM 63.5 °F 55.6 °F 75% 29.75 in 10.0 mi SW 8.1 mph - N/A   Mostly Cloudy
5:15 AM 63.1 °F 55.9 °F 77% 29.75 in 10.0 mi SW 4.6 mph - N/A   Overcast
5:35 AM 62.6 °F 56.5 °F 80% 29.75 in 10.0 mi SW 6.9 mph - 0.02 in   Overcast
5:55 AM 61.7 °F 58.3 °F 89% 29.76 in 7.0 mi South 5.8 mph - 0.04 in   Overcast
6:15 AM 61.9 °F 58.6 °F 89% 29.72 in 10.0 mi SSE 10.4 mph - 0.02 in   Overcast
6:35 AM 61.7 °F 58.3 °F 89% 29.72 in 10.0 mi Calm Calm - 0.02 in   Mostly Cloudy
6:55 AM 61.7 °F 58.3 °F 89% 29.70 in 10.0 mi SE 9.2 mph - 0.02 in   Mostly Cloudy
7:15 AM 62.4 °F 58.5 °F 87% 29.69 in 10.0 mi SSE 13.8 mph 19.6 mph N/A   Scattered Clouds
7:35 AM 62.6 °F 58.6 °F 87% 29.72 in 10.0 mi SSW 15.0 mph 20.7 mph N/A   Scattered Clouds
7:55 AM 62.6 °F 58.8 °F 87% 29.71 in 10.0 mi SSW 13.8 mph 18.4 mph N/A   Scattered Clouds
8:15 AM 63.7 °F 59.5 °F 86% 29.70 in 10.0 mi SSW 13.8 mph - N/A   Clear
8:35 AM 64.4 °F 59.4 °F 84% 29.71 in 10.0 mi South 15.0 mph 24.2 mph N/A   Clear
8:55 AM 64.9 °F 59.7 °F 83% 29.71 in 10.0 mi SSW 11.5 mph 18.4 mph N/A   Clear
9:15 AM 68.2 °F 58.6 °F 71% 29.70 in 10.0 mi SSW 18.4 mph 24.2 mph N/A   Clear
9:35 AM 70.0 °F 58.1 °F 66% 29.69 in 10.0 mi SSW 16.1 mph 24.2 mph N/A   Scattered Clouds
9:55 AM 72.9 °F 56.3 °F 56% 29.69 in 10.0 mi SSW 16.1 mph 21.9 mph N/A   Clear
10:15 AM 75.2 °F 54.5 °F 48% 29.68 in 10.0 mi South 17.3 mph 24.2 mph N/A   Clear
10:35 AM 76.3 °F 52.7 °F 44% 29.69 in 10.0 mi SSW 20.7 mph 27.6 mph N/A   Clear
10:55 AM 78.4 °F 52.5 °F 40% 29.70 in 10.0 mi SW 13.8 mph 24.2 mph N/A   Clear
11:15 AM 80.6 °F 49.3 °F 33% 29.70 in 10.0 mi SW 16.1 mph 28.8 mph N/A   Clear
11:35 AM 81.5 °F 46.9 °F 30% 29.70 in 10.0 mi SW 12.7 mph 27.6 mph N/A   Clear
11:55 AM 82.9 °F 46.8 °F 28% 29.70 in 10.0 mi SSW 18.4 mph 26.5 mph N/A   Clear
12:15 PM 83.5 °F 43.0 °F 24% 29.70 in 10.0 mi SW 17.3 mph 28.8 mph N/A   Clear
12:35 PM 84.2 °F 41.5 °F 22% 29.70 in 10.0 mi SW 16.1 mph 27.6 mph N/A   Clear
12:55 PM 84.6 °F 43.2 °F 23% 29.69 in 10.0 mi SSW 20.7 mph 25.3 mph N/A   Clear
1:15 PM 85.3 °F 41.5 °F 21% 29.69 in 10.0 mi SSW 21.9 mph 25.3 mph N/A   Clear
1:35 PM 85.6 °F 39.6 °F 20% 29.69 in 10.0 mi SW 23.0 mph 29.9 mph N/A   Clear
1:55 PM 86.4 °F 39.6 °F 19% 29.70 in 10.0 mi SSW 24.2 mph 27.6 mph N/A   Clear
2:15 PM 86.2 °F 42.8 °F 22% 29.70 in 10.0 mi SSW 18.4 mph 28.8 mph N/A   Clear
2:35 PM 87.1 °F 41.5 °F 20% 29.70 in 10.0 mi SSW 16.1 mph 28.8 mph N/A   Clear
2:55 PM 86.9 °F 36.9 °F 17% 29.71 in 10.0 mi SW 25.3 mph 33.4 mph N/A   Clear
3:15 PM 86.9 °F 38.5 °F 18% 29.71 in 10.0 mi SSW 18.4 mph 33.4 mph N/A   Clear
3:35 PM 87.3 °F 38.1 °F 18% 29.71 in 10.0 mi SSW 17.3 mph 28.8 mph N/A   Clear
3:55 PM 87.1 °F 39.2 °F 18% 29.71 in 10.0 mi SW 19.6 mph 26.5 mph N/A   Clear
4:15 PM 86.9 °F 38.3 °F 18% 29.71 in 10.0 mi SSW 18.4 mph 31.1 mph N/A   Clear
4:35 PM 86.4 °F 35.6 °F 16% 29.72 in 10.0 mi SSW 20.7 mph 29.9 mph N/A   Clear
4:55 PM 85.5 °F 36.9 °F 18% 29.72 in 10.0 mi SSW 17.3 mph 27.6 mph N/A   Clear
5:15 PM 85.5 °F 37.2 °F 18% 29.73 in 10.0 mi SSW 25.3 mph 31.1 mph N/A   Clear
5:35 PM 84.7 °F 37.2 °F 18% 29.74 in 10.0 mi SSW 18.4 mph 25.3 mph N/A   Clear
5:55 PM 85.5 °F 39.6 °F 20% 29.75 in 10.0 mi SSW 15.0 mph 21.9 mph N/A   Clear
6:15 PM 84.7 °F 39.0 °F 20% 29.76 in 10.0 mi SSW 15.0 mph 20.7 mph N/A   Clear
6:35 PM 84.4 °F 38.7 °F 20% 29.76 in 10.0 mi SSW 17.3 mph 23.0 mph N/A   Clear
7:15 PM 82.4 °F 39.2 °F 21% 29.77 in 10.0 mi South 13.8 mph 23.0 mph N/A   Clear
7:35 PM 81.5 °F 37.8 °F 21% 29.78 in 10.0 mi SSW 16.1 mph 21.9 mph N/A   Clear
7:55 PM 80.4 °F 38.7 °F 22% 29.79 in 10.0 mi SSW 10.4 mph - N/A   Clear
8:15 PM 79.2 °F 40.8 °F 25% 29.80 in 10.0 mi South 11.5 mph - N/A   Clear
8:35 PM 78.8 °F 40.8 °F 26% 29.80 in 10.0 mi SSW 12.7 mph - N/A   Clear
8:55 PM 77.9 °F 40.5 °F 26% 29.81 in 10.0 mi South 10.4 mph - N/A   Clear
9:15 PM 76.5 °F 41.5 °F 29% 29.82 in 10.0 mi South 9.2 mph - N/A   Clear
9:35 PM 75.4 °F 43.5 °F 32% 29.83 in 10.0 mi SSW 10.4 mph 17.3 mph N/A   Clear
9:55 PM 75.6 °F 43.3 °F 32% 29.83 in 10.0 mi SSW 11.5 mph 17.3 mph N/A   Clear
10:15 PM 75.2 °F 43.7 °F 32% 29.84 in 10.0 mi South 11.5 mph - N/A   Clear
10:35 PM 73.4 °F 44.6 °F 36% 29.85 in 10.0 mi South 9.2 mph - N/A   Clear
10:55 PM 72.5 °F 45.1 °F 37% 29.86 in 10.0 mi South 8.1 mph - N/A   Clear
11:15 PM 72.7 °F 46.2 °F 39% 29.87 in 10.0 mi South 11.5 mph 19.6 mph N/A   Clear
11:35 PM 72.1 °F 47.7 °F 42% 29.88 in 10.0 mi SSW 10.4 mph - N/A   Clear